GPS BIIF-9 (40534 NORAD) Tracking and Keplerian Element Data

This shows tracking and keplerian element data for the satellite.

Feedback or suggestion? Click here.




ElementValue
Catalog40534
NameGPS BIIF-9
Epoch Orbit6742
Epoch Day160.16404809
Epoch Year2024
RAAN234.772
Inclination53.346
Eccentricity0.0087599
Argument of Perigee29.7558
Mean Anonmoly330.8154
Mean Motion2.00566
Decay Rate1.4E-07
L11 40534U 15013A 24160.16404809 .00000014 00000+0 00000+0 0 9994
L22 40534 53.3460 234.7720 0087599 29.7558 330.8154 2.00566000 67420



Live tracking and technical data element details for GPS BIIF-9 (NORAD 40534). GPS BIIF-9 can be tracked NOW for your location showing map with azimuth and elevation plus other details from your city location.







IsCatalogInMostPopularTable: catalog: 40534, numindb: 654
Update: records affected: 1



GetName: 40534 GPS BIIF-9

Hit Count: updated at: Fri, 14 Jun 2024 19:20:01 GMT